#timestamp,LO_Frequency,Hit 
1502730015.3,286047000.7,N
1502730035.1,286046997.8,N
1502730055.9,286046995.0,N
1502730075.9,286046995.6,N
1502730095.8,286046992.3,N
1502730115.6,286046989.8,N
1502730135.5,286046992.6,N
1502730155.3,286046993.3,N
1502730175.1,286046993.4,N
1502730195.9,286046995.0,N
1502730215.7,286046997.4,N
1502730235.5,286046997.2,N
1502730255.3,286046998.5,N
1502730275.2,286047001.0,N
1502730295.0,286046996.9,N
1502730295.9,286046996.9,N
1502730315.7,286046997.5,N
1502730335.6,286046996.9,N
1502730355.4,286046995.5,N
1502730375.2,286046995.2,N
1502730395.1,286046992.9,N
1502730396.0,286046992.9,N
1502730415.8,286046992.7,N
1502730435.6,286046992.9,N
1502730455.5,286046990.8,N
1502730475.3,286046991.3,N
1502730495.1,286046989.7,N
1502730515.9,286046989.6,N
1502730535.7,286046990.2,N
1502730555.5,286046991.4,N
1502730575.4,286046990.5,P
1502730595.2,286046999.6,N
1502730615.0,286047004.4,N
1502730615.9,286047004.4,N
1502730635.8,286047004.0,N
1502730655.6,286047000.2,N
1502730675.4,286046997.0,N
1502730695.3,286047000.9,N
1502730715.1,286046999.1,N
1502730716.0,286046999.1,N
1502730735.8,286046998.8,N
1502730755.7,286047000.8,N
1502730775.5,286047000.7,N
1502730795.3,286047001.2,N
1502730815.1,286046998.3,N
1502730835.9,286047000.3,N
1502730855.7,286047003.8,N
1502730875.5,286047003.7,N
1502730895.4,286047006.0,N
1502730915.2,286047005.3,N
1502730935.0,286047003.8,N
1502730935.9,286047003.8,N
1502730955.8,286047004.9,N
1502730975.6,286047005.2,N
1502730995.4,286047002.5,N
1502731015.3,286047003.8,N
1502731035.1,286047005.9,N
1502731036.0,286047005.9,N
1502731055.8,286047005.6,N
1502731075.7,286047003.6,N
1502731095.5,286046999.7,N
1502731115.3,286046999.1,N
1502731135.1,286046998.2,N
1502731155.9,286047002.3,N
1502731175.7,286047004.2,N
1502731195.6,286047005.5,N
1502731215.4,286047005.3,N
1502731235.2,286047005.4,N
1502731255.0,286047002.1,N
1502731256.0,286047002.1,N
1502731275.8,286046998.4,N
1502731295.6,286047004.1,N
1502731315.4,286047003.9,N
1502731335.3,286047003.9,N
1502731355.1,286047001.9,N
1502731375.8,286047002.7,N
1502731395.7,286046999.9,N
1502731415.5,286046999.9,N
1502731435.3,286046996.6,N
1502731455.2,286046994.9,N
1502731475.9,286046994.9,N
1502731495.7,286046995.0,N
1502731515.6,286046995.7,N
1502731535.4,286046995.6,N
1502731555.2,286046996.6,N
1502731575.1,286046996.5,N
1502731576.0,286046996.5,N
1502731595.8,286046998.7,N
1502731615.6,286046996.6,N
1502731635.5,286046997.1,N
1502731655.3,286046999.5,N
1502731675.1,286046994.9,N
1502731695.8,286046995.7,N
1502731715.7,286046997.6,N
1502731735.5,286046997.7,N
1502731755.3,286046999.6,N
1502731775.2,286046999.6,N
1502731795.9,286046999.6,N
1502731815.7,286047000.6,N
1502731835.6,286046998.3,N
1502731855.4,286046998.3,N
1502731875.2,286046999.2,N
1502731895.1,286046996.6,N
1502731896.0,286046996.6,N
1502731915.8,286046998.1,N
1502731935.6,286046998.3,N
1502731955.5,286046996.1,N
1502731975.3,286046994.4,P
1502731995.1,286046990.2,P
1502732015.9,286046991.0,P
1502732035.7,286046992.8,N
1502732055.5,286046995.2,N
1502732075.3,286046995.0,N
1502732095.2,286046997.1,N
1502732115.0,286047000.9,N
1502732115.9,286047000.9,N
1502732135.7,286047002.6,N
1502732155.6,286047000.1,N
1502732175.4,286047003.3,N
1502732195.2,286047003.0,N
1502732215.1,286047004.4,N
1502732216.0,286047004.4,N
1502732235.8,286047002.1,N
1502732255.6,286047002.1,N
1502732275.5,286047003.3,N
1502732295.3,286047004.8,N
1502732315.1,286047005.0,N
1502732335.9,286047005.6,N
1502732355.7,286047007.5,N
1502732375.5,286047010.4,N
1502732395.3,286047009.6,N
1502732415.2,286047010.5,N
1502732435.0,286047011.8,N
1502732435.9,286047011.8,N
1502732455.7,286047012.2,N
1502732475.6,286047013.4,N
1502732495.4,286047017.2,N
1502732515.2,286047014.3,N
1502732535.1,286047013.4,N
1502732536.0,286047013.4,N
1502732555.8,286047013.4,N
1502732575.6,286047011.5,N
1502732595.5,286047010.0,N
1502732615.3,286047012.1,N
1502732635.1,286047015.6,P
1502732655.9,286047003.0,N
1502732675.7,286047005.9,N
1502732695.5,286047003.1,N
1502732715.4,286047002.1,N
1502732735.2,286047002.4,N
1502732755.0,286047003.0,N
1502732755.9,286047003.0,N
1502732775.8,286047003.9,N
1502732795.6,286047001.7,N
1502732815.4,286047003.9,N
1502732835.3,286047001.7,N
1502732855.1,286047004.4,N
1502732856.0,286047004.4,N
1502732875.8,286047001.8,N
1502732895.7,286046998.3,N
1502732915.5,286046999.2,N
1502732935.3,286047000.8,N
1502732955.1,286047001.9,N
1502732975.9,286047001.8,N
1502732995.7,286046999.8,N
1502733015.5,286046999.8,N
1502733035.4,286047002.4,N
1502733055.2,286046998.3,N
1502733075.0,286046999.6,N
1502733075.9,286046999.6,N
1502733095.8,286046998.5,N
1502733115.6,286046999.3,N
1502733135.4,286046996.5,N
1502733155.3,286046996.8,N
1502733175.1,286046997.9,N
1502733176.0,286046997.9,N
1502733195.8,286047000.9,N
1502733215.7,286047000.4,N
1502733235.5,286046998.1,N
1502733255.3,286046998.2,N
1502733275.2,286047000.6,N
1502733295.9,286046996.5,N
1502733315.7,286046999.6,N
1502733335.6,286046998.6,N
1502733355.4,286047000.9,N
1502733375.2,286047000.4,N
1502733395.0,286047000.7,N
1502733396.0,286047000.7,N
1502733415.8,286046999.0,N
1502733435.6,286046995.4,P
1502733455.5,286047000.8,N
1502733475.3,286046999.3,N
1502733495.1,286046997.4,N
1502733515.9,286046996.8,N
1502733535.7,286046999.1,N
1502733555.5,286046998.0,N
1502733575.3,286046996.1,N
1502733595.2,286046995.3,N
